Location: Buchberg
(46.9333°N, 15.8500°E)
Time: 04:05:17
(UTC+00:00)

MOZ.5/SAFIR/RUBIN 5/SL-8 - Pass Details

Date: 14 July 2020
Orbit: 677 x 706 km, 98.1° (Epoch: 11 August)

Event Time Altitude Azimuth Distance (km) Brightness Sun altitude
Exits shadow 00:25:51 35° 172° (S) 1,136 4.4 -18.9°
Maximum altitude 00:27:54 82° 256° (WSW) 716 3.7 -18.8°
Drops below altitude 10° 00:32:42 10° 345° (NNW) 2,186 7.1 -18.5°
Sets 00:34:59 0° 346° (NNW) 3,111 8.0 -18.3°
